Time,TemperatureF,DewpointF,PressureIn,WindDirection,WindDirectionDegrees,WindSpeedMPH,WindSpeedGustMPH,Humidity,HourlyPrecipIn,Conditions,Clouds,dailyrainin,SolarRadiationWatts/m^2,SoftwareType,DateUTC
2013-08-22 00:02:00,73.5,68.4,28.55,South,184,0.0,0.0,84,0.00,,,0.00,0,WeatherTracker,2013-08-22 05:02:00,
2013-08-22 00:07:00,73.5,68.4,28.55,South,183,0.0,0.0,84,0.00,,,0.00,0,WeatherTracker,2013-08-22 05:07:00,
2013-08-22 00:12:00,73.5,68.4,28.55,South,184,0.0,0.0,84,0.00,,,0.00,0,WeatherTracker,2013-08-22 05:12:00,
2013-08-22 00:17:00,73.5,68.4,28.57,South,182,2.0,0.0,84,0.00,,,0.00,0,WeatherTracker,2013-08-22 05:17:00,
2013-08-22 00:23:00,73.5,68.4,28.57,South,182,0.0,0.0,84,0.00,,,0.00,0,WeatherTracker,2013-08-22 05:23:00,
2013-08-22 00:28:00,73.6,68.5,28.57,South,186,0.0,0.0,84,0.00,,,0.00,0,WeatherTracker,2013-08-22 05:28:00,
2013-08-22 00:33:00,73.7,68.2,28.57,South,188,1.0,0.0,83,0.00,,,0.00,0,WeatherTracker,2013-08-22 05:33:00,
2013-08-22 00:38:00,73.9,68.4,28.57,South,189,0.0,0.0,83,0.00,,,0.00,0,WeatherTracker,2013-08-22 05:38:00,
2013-08-22 00:43:00,74.0,68.5,28.57,SSW,205,0.0,0.0,83,0.00,,,0.00,0,WeatherTracker,2013-08-22 05:43:00,
2013-08-22 00:48:00,74.2,68.3,28.56,SSW,205,0.0,0.0,82,0.00,,,0.00,0,WeatherTracker,2013-08-22 05:48:00,
2013-08-22 00:53:00,74.3,68.4,28.56,South,169,0.0,0.0,82,0.00,,,0.00,0,WeatherTracker,2013-08-22 05:53:00,
2013-08-22 00:58:00,74.4,68.2,28.56,South,171,0.0,0.0,81,0.00,,,0.00,0,WeatherTracker,2013-08-22 05:58:00,
2013-08-22 01:03:00,74.4,68.2,28.57,South,172,0.0,0.0,81,0.00,,,0.00,0,WeatherTracker,2013-08-22 06:03:00,
2013-08-22 01:08:00,74.5,68.3,28.57,South,172,0.0,0.0,81,0.00,,,0.00,0,WeatherTracker,2013-08-22 06:08:00,
2013-08-22 01:13:00,74.5,68.3,28.57,South,173,0.0,0.0,81,0.00,,,0.00,0,WeatherTracker,2013-08-22 06:13:00,
2013-08-22 01:18:00,74.5,68.3,28.56,South,173,0.0,0.0,81,0.00,,,0.00,0,WeatherTracker,2013-08-22 06:18:00,
2013-08-22 01:23:00,74.5,68.3,28.56,South,173,0.0,0.0,81,0.00,,,0.00,0,WeatherTracker,2013-08-22 06:23:00,
2013-08-22 01:28:00,74.4,68.2,28.56,South,173,0.0,0.0,81,0.00,,,0.00,0,WeatherTracker,2013-08-22 06:28:00,
2013-08-22 01:34:00,74.3,68.1,28.56,South,172,0.0,0.0,81,0.00,,,0.00,0,WeatherTracker,2013-08-22 06:34:00,
2013-08-22 01:39:00,74.1,68.2,28.56,South,172,0.0,0.0,82,0.00,,,0.00,0,WeatherTracker,2013-08-22 06:39:00,
2013-08-22 01:44:00,73.9,68.0,28.57,South,173,0.0,0.0,82,0.00,,,0.00,0,WeatherTracker,2013-08-22 06:44:00,
2013-08-22 01:49:00,73.7,68.2,28.57,South,172,0.0,0.0,83,0.00,,,0.00,0,WeatherTracker,2013-08-22 06:49:00,
2013-08-22 01:54:00,73.5,68.4,28.57,North,350,6.0,0.0,84,0.00,,,0.00,0,WeatherTracker,2013-08-22 06:54:00,
2013-08-22 01:59:00,73.3,68.5,28.61,North,355,6.0,0.0,85,0.00,,,0.00,0,WeatherTracker,2013-08-22 06:59:00,
2013-08-22 02:04:00,73.4,68.3,28.61,North,355,5.0,0.0,84,0.00,,,0.00,0,WeatherTracker,2013-08-22 07:04:00,
2013-08-22 02:09:00,73.5,68.0,28.61,NW,323,3.0,0.0,83,0.00,,,0.00,0,WeatherTracker,2013-08-22 07:09:00,
2013-08-22 02:14:00,74.1,68.2,28.63,North,11,0.0,0.0,82,0.00,,,0.00,0,WeatherTracker,2013-08-22 07:14:00,
2013-08-22 02:19:00,74.5,68.3,28.63,NNE,29,2.0,0.0,81,0.00,,,0.00,0,WeatherTracker,2013-08-22 07:19:00,
2013-08-22 02:24:00,74.8,68.2,28.63,North,350,5.0,0.0,80,0.00,,,0.00,0,WeatherTracker,2013-08-22 07:24:00,
2013-08-22 02:29:00,75.0,68.4,28.62,North,351,0.0,0.0,80,0.00,,,0.00,0,WeatherTracker,2013-08-22 07:29:00,
2013-08-22 02:34:00,75.1,68.5,28.62,North,350,0.0,0.0,80,0.00,,,0.00,0,WeatherTracker,2013-08-22 07:34:00,
2013-08-22 02:39:00,75.1,68.5,28.62,NNW,345,4.0,0.0,80,0.00,,,0.00,0,WeatherTracker,2013-08-22 07:39:00,
2013-08-22 02:44:00,75.3,69.1,28.64,NNW,348,7.0,0.0,81,0.00,,,0.00,0,WeatherTracker,2013-08-22 07:44:00,
2013-08-22 02:49:00,75.3,69.1,28.64,NNW,340,0.0,0.0,81,0.00,,,0.00,0,WeatherTracker,2013-08-22 07:49:00,
2013-08-22 02:54:00,75.3,68.7,28.64,North,360,1.0,0.0,80,0.00,,,0.00,0,WeatherTracker,2013-08-22 07:54:00,
2013-08-22 02:59:00,75.1,68.1,28.65,NNW,342,0.0,0.0,79,0.00,,,0.00,0,WeatherTracker,2013-08-22 07:59:00,
2013-08-22 03:04:00,74.8,67.8,28.65,North,9,0.0,0.0,79,0.00,,,0.00,0,WeatherTracker,2013-08-22 08:04:00,
2013-08-22 03:09:00,74.6,67.6,28.65,NW,311,0.0,0.0,79,0.00,,,0.00,0,WeatherTracker,2013-08-22 08:09:00,
2013-08-22 03:14:00,74.3,67.4,28.66,NW,322,0.0,0.0,79,0.00,,,0.00,0,WeatherTracker,2013-08-22 08:14:00,
2013-08-22 03:19:00,74.2,67.6,28.66,NW,322,0.0,0.0,80,0.00,,,0.00,0,WeatherTracker,2013-08-22 08:19:00,
2013-08-22 03:24:00,74.0,67.4,28.66,NW,323,0.0,0.0,80,0.00,,,0.00,0,WeatherTracker,2013-08-22 08:24:00,
2013-08-22 03:29:00,73.7,67.1,28.67,NW,322,0.0,0.0,80,0.00,,,0.00,0,WeatherTracker,2013-08-22 08:29:00,
2013-08-22 03:34:00,73.5,66.9,28.67,NW,326,0.0,0.0,80,0.00,,,0.00,0,WeatherTracker,2013-08-22 08:34:00,
2013-08-22 03:39:00,73.3,66.7,28.67,NW,325,0.0,0.0,80,0.00,,,0.00,0,WeatherTracker,2013-08-22 08:39:00,
2013-08-22 03:45:00,73.0,66.8,28.66,NW,326,0.0,0.0,81,0.00,,,0.00,0,WeatherTracker,2013-08-22 08:45:00,
2013-08-22 03:50:00,72.9,66.7,28.66,NW,326,0.0,0.0,81,0.00,,,0.00,0,WeatherTracker,2013-08-22 08:50:00,
2013-08-22 03:55:00,72.6,66.4,28.66,NNE,26,0.0,0.0,81,0.00,,,0.00,0,WeatherTracker,2013-08-22 08:55:00,
2013-08-22 04:00:00,72.4,66.6,28.66,NNE,28,1.0,0.0,82,0.00,,,0.00,0,WeatherTracker,2013-08-22 09:00:00,
2013-08-22 04:05:00,72.2,66.4,28.66,NNW,345,0.0,0.0,82,0.00,,,0.00,0,WeatherTracker,2013-08-22 09:05:00,
2013-08-22 04:10:00,72.1,66.3,28.66,NNW,345,0.0,0.0,82,0.00,,,0.00,0,WeatherTracker,2013-08-22 09:10:00,
2013-08-22 04:15:00,71.9,66.1,28.65,West,279,0.0,0.0,82,0.00,,,0.00,0,WeatherTracker,2013-08-22 09:15:00,
2013-08-22 04:20:00,71.8,66.3,28.65,West,279,0.0,0.0,83,0.00,,,0.00,0,WeatherTracker,2013-08-22 09:20:00,
2013-08-22 04:25:00,71.7,66.3,28.65,West,279,0.0,0.0,83,0.00,,,0.00,0,WeatherTracker,2013-08-22 09:25:00,
2013-08-22 04:30:00,71.6,66.2,28.66,West,279,0.0,0.0,83,0.00,,,0.00,0,WeatherTracker,2013-08-22 09:30:00,
2013-08-22 04:35:00,71.4,66.3,28.66,NE,34,1.0,0.0,84,0.00,,,0.00,0,WeatherTracker,2013-08-22 09:35:00,
2013-08-22 04:40:00,71.3,66.2,28.66,North,5,0.0,0.0,84,0.00,,,0.00,0,WeatherTracker,2013-08-22 09:40:00,
2013-08-22 04:45:00,71.3,66.2,28.66,North,5,0.0,0.0,84,0.00,,,0.00,0,WeatherTracker,2013-08-22 09:45:00,
2013-08-22 04:50:00,71.1,66.0,28.66,North,5,0.0,0.0,84,0.00,,,0.00,0,WeatherTracker,2013-08-22 09:50:00,
2013-08-22 04:55:00,71.0,65.9,28.66,North,5,0.0,0.0,84,0.00,,,0.00,0,WeatherTracker,2013-08-22 09:55:00,
2013-08-22 05:00:00,70.9,66.2,28.64,North,360,0.0,0.0,85,0.00,,,0.00,0,WeatherTracker,2013-08-22 10:00:00,
2013-08-22 05:05:00,70.8,66.1,28.64,North,5,0.0,0.0,85,0.00,,,0.00,0,WeatherTracker,2013-08-22 10:05:00,
2013-08-22 05:10:00,70.7,66.0,28.64,North,5,0.0,0.0,85,0.00,,,0.00,0,WeatherTracker,2013-08-22 10:10:00,
2013-08-22 05:15:00,70.6,65.9,28.66,North,5,0.0,0.0,85,0.00,,,0.00,0,WeatherTracker,2013-08-22 10:15:00,
2013-08-22 05:20:00,70.6,65.9,28.66,North,5,0.0,0.0,85,0.00,,,0.00,0,WeatherTracker,2013-08-22 10:20:00,
2013-08-22 05:25:00,70.5,65.8,28.66,North,5,0.0,0.0,85,0.00,,,0.00,0,WeatherTracker,2013-08-22 10:25:00,
2013-08-22 05:30:00,70.4,66.0,28.66,North,360,0.0,0.0,86,0.00,,,0.00,0,WeatherTracker,2013-08-22 10:30:00,
2013-08-22 05:36:00,70.3,65.9,28.66,North,5,0.0,0.0,86,0.00,,,0.00,0,WeatherTracker,2013-08-22 10:36:00,
2013-08-22 05:41:00,70.2,65.8,28.66,North,5,0.0,0.0,86,0.00,,,0.00,0,WeatherTracker,2013-08-22 10:41:00,
2013-08-22 05:46:00,70.1,65.7,28.66,North,5,0.0,0.0,86,0.00,,,0.00,0,WeatherTracker,2013-08-22 10:46:00,
2013-08-22 07:27:00,68.9,66.2,28.64,SW,236,2.0,0.0,91,0.00,,,0.00,5,WeatherTracker,2013-08-22 12:27:00,
2013-08-22 07:32:00,68.9,66.2,28.62,SSW,213,0.0,0.0,91,0.00,,,0.00,9,WeatherTracker,2013-08-22 12:32:00,
2013-08-22 07:37:00,68.9,66.2,28.62,SSW,213,0.0,0.0,91,0.00,,,0.00,11,WeatherTracker,2013-08-22 12:37:00,
2013-08-22 07:42:00,68.9,66.2,28.62,SSW,213,0.0,0.0,91,0.00,,,0.00,12,WeatherTracker,2013-08-22 12:42:00,
2013-08-22 07:47:00,69.0,66.3,28.62,SW,218,0.0,0.0,91,0.00,,,0.00,12,WeatherTracker,2013-08-22 12:47:00,
2013-08-22 07:52:00,69.0,66.3,28.62,SW,218,0.0,0.0,91,0.00,,,0.00,12,WeatherTracker,2013-08-22 12:52:00,
2013-08-22 07:57:00,69.0,66.3,28.62,SW,219,0.0,0.0,91,0.00,,,0.00,16,WeatherTracker,2013-08-22 12:57:00,
2013-08-22 08:01:00,69.1,66.4,28.61,SW,219,0.0,0.0,91,0.00,,,0.00,26,WeatherTracker,2013-08-22 13:01:00,
2013-08-22 08:06:00,69.1,66.4,28.61,SW,219,0.0,0.0,91,0.00,,,0.00,35,WeatherTracker,2013-08-22 13:06:00,
2013-08-22 08:11:00,69.2,66.8,28.61,SW,226,0.0,0.0,92,0.00,,,0.00,30,WeatherTracker,2013-08-22 13:11:00,
2013-08-22 08:16:00,69.2,66.8,28.63,SW,226,0.0,0.0,92,0.00,,,0.00,33,WeatherTracker,2013-08-22 13:16:00,
2013-08-22 08:21:00,69.3,66.9,28.63,SW,219,4.0,0.0,92,0.00,,,0.00,42,WeatherTracker,2013-08-22 13:21:00,
2013-08-22 08:26:00,69.4,67.0,28.63,SW,219,0.0,0.0,92,0.00,,,0.00,53,WeatherTracker,2013-08-22 13:26:00,
2013-08-22 08:31:00,69.5,67.1,28.62,SW,220,0.0,0.0,92,0.00,,,0.00,86,WeatherTracker,2013-08-22 13:31:00,
2013-08-22 08:36:00,69.6,67.2,28.62,SW,219,0.0,0.0,92,0.00,,,0.00,127,WeatherTracker,2013-08-22 13:36:00,
2013-08-22 08:41:00,69.8,67.4,28.62,SW,220,0.0,0.0,92,0.00,,,0.00,146,WeatherTracker,2013-08-22 13:41:00,
2013-08-22 08:46:00,70.0,67.9,28.61,SW,223,0.0,0.0,93,0.00,,,0.00,134,WeatherTracker,2013-08-22 13:46:00,
2013-08-22 08:51:00,70.2,67.8,28.61,SW,218,0.0,0.0,92,0.00,,,0.00,160,WeatherTracker,2013-08-22 13:51:00,
2013-08-22 08:56:00,70.4,68.0,28.61,SW,218,0.0,0.0,92,0.00,,,0.00,199,WeatherTracker,2013-08-22 13:56:00,
2013-08-22 09:01:00,70.7,68.3,28.61,SW,219,0.0,0.0,92,0.00,,,0.00,185,WeatherTracker,2013-08-22 14:01:00,
2013-08-22 09:06:00,71.0,68.6,28.61,SW,218,0.0,0.0,92,0.00,,,0.00,220,WeatherTracker,2013-08-22 14:06:00,
2013-08-22 09:11:00,71.4,68.9,28.61,SW,219,0.0,0.0,92,0.00,,,0.00,290,WeatherTracker,2013-08-22 14:11:00,
2013-08-22 09:17:00,71.9,69.1,28.62,SW,219,0.0,0.0,91,0.00,,,0.00,288,WeatherTracker,2013-08-22 14:17:00,
2013-08-22 09:21:00,72.4,69.3,28.62,SW,228,0.0,0.0,90,0.00,,,0.00,204,WeatherTracker,2013-08-22 14:21:00,
2013-08-22 09:26:00,72.8,69.4,28.62,SW,229,0.0,0.0,89,0.00,,,0.00,114,WeatherTracker,2013-08-22 14:26:00,
2013-08-22 09:32:00,73.1,69.0,28.62,SSW,198,0.0,0.0,87,0.00,,,0.00,70,WeatherTracker,2013-08-22 14:32:00,
2013-08-22 09:37:00,73.3,68.8,28.62,South,187,0.0,0.0,86,0.00,,,0.00,70,WeatherTracker,2013-08-22 14:37:00,
2013-08-22 09:42:00,73.5,68.7,28.62,South,187,0.0,0.0,85,0.00,,,0.00,102,WeatherTracker,2013-08-22 14:42:00,
2013-08-22 09:47:00,73.6,68.8,28.62,South,187,0.0,0.0,85,0.00,,,0.00,128,WeatherTracker,2013-08-22 14:47:00,
2013-08-22 09:52:00,73.8,69.0,28.62,South,189,0.0,0.0,85,0.00,,,0.00,148,WeatherTracker,2013-08-22 14:52:00,
2013-08-22 09:57:00,73.9,69.1,28.62,South,189,0.0,0.0,85,0.00,,,0.00,130,WeatherTracker,2013-08-22 14:57:00,
2013-08-22 10:02:00,74.0,69.2,28.63,South,190,0.0,0.0,85,0.00,,,0.00,83,WeatherTracker,2013-08-22 15:02:00,
2013-08-22 10:07:00,74.1,68.9,28.63,SSW,192,0.0,0.0,84,0.00,,,0.00,74,WeatherTracker,2013-08-22 15:07:00,
2013-08-22 10:12:00,74.1,68.9,28.63,SSW,192,0.0,0.0,84,0.00,,,0.00,91,WeatherTracker,2013-08-22 15:12:00,
2013-08-22 10:17:00,74.1,68.6,28.64,SSW,192,0.0,0.0,83,0.00,,,0.00,121,WeatherTracker,2013-08-22 15:17:00,
2013-08-22 10:22:00,74.2,69.0,28.64,SSW,192,0.0,0.0,84,0.00,,,0.00,146,WeatherTracker,2013-08-22 15:22:00,
2013-08-22 10:27:00,74.3,69.1,28.64,SSW,192,0.0,0.0,84,0.00,,,0.00,186,WeatherTracker,2013-08-22 15:27:00,
2013-08-22 10:32:00,74.4,69.2,28.66,SSW,192,0.0,0.0,84,0.00,,,0.00,216,WeatherTracker,2013-08-22 15:32:00,
2013-08-22 10:37:00,74.6,69.4,28.66,SSW,192,0.0,0.0,84,0.00,,,0.00,267,WeatherTracker,2013-08-22 15:37:00,
2013-08-22 10:42:00,74.8,69.6,28.66,SSW,192,0.0,0.0,84,0.00,,,0.00,353,WeatherTracker,2013-08-22 15:42:00,
2013-08-22 10:47:00,75.1,69.6,28.66,SSW,193,0.0,0.0,83,0.00,,,0.00,262,WeatherTracker,2013-08-22 15:47:00,
2013-08-22 10:52:00,75.4,69.9,28.66,SSW,194,0.0,0.0,83,0.00,,,0.00,264,WeatherTracker,2013-08-22 15:52:00,
2013-08-22 10:57:00,75.7,69.8,28.66,SSW,194,0.0,0.0,82,0.00,,,0.00,241,WeatherTracker,2013-08-22 15:57:00,
2013-08-22 11:02:00,76.1,70.2,28.67,SSW,194,0.0,0.0,82,0.00,,,0.00,214,WeatherTracker,2013-08-22 16:02:00,
2013-08-22 11:07:00,76.4,70.1,28.67,SSW,194,0.0,0.0,81,0.00,,,0.00,223,WeatherTracker,2013-08-22 16:07:00,
2013-08-22 11:12:00,76.6,69.6,28.67,SSW,195,0.0,0.0,79,0.00,,,0.00,246,WeatherTracker,2013-08-22 16:12:00,
2013-08-22 11:17:00,76.8,69.8,28.67,SSW,196,0.0,0.0,79,0.00,,,0.00,292,WeatherTracker,2013-08-22 16:17:00,
2013-08-22 11:23:00,77.0,70.0,28.67,North,360,0.0,0.0,79,0.00,,,0.00,290,WeatherTracker,2013-08-22 16:23:00,
2013-08-22 11:28:00,77.2,69.8,28.67,North,360,0.0,0.0,78,0.00,,,0.00,313,WeatherTracker,2013-08-22 16:28:00,
2013-08-22 11:33:00,77.5,70.1,28.68,North,360,0.0,0.0,78,0.00,,,0.00,297,WeatherTracker,2013-08-22 16:33:00,
2013-08-22 11:38:00,77.7,70.3,28.68,North,355,0.0,0.0,78,0.00,,,0.00,396,WeatherTracker,2013-08-22 16:38:00,
2013-08-22 11:43:00,78.0,70.6,28.68,NNW,331,0.0,0.0,78,0.00,,,0.00,434,WeatherTracker,2013-08-22 16:43:00,
2013-08-22 11:48:00,78.4,70.2,28.68,SSW,205,0.0,0.0,76,0.00,,,0.00,378,WeatherTracker,2013-08-22 16:48:00,
2013-08-22 11:53:00,78.7,70.9,28.68,NNE,33,4.0,0.0,77,0.00,,,0.00,392,WeatherTracker,2013-08-22 16:53:00,
2013-08-22 11:58:00,79.0,70.0,28.68,NNE,28,0.0,0.0,74,0.00,,,0.00,357,WeatherTracker,2013-08-22 16:58:00,
2013-08-22 12:03:00,79.2,70.2,28.68,North,10,0.0,0.0,74,0.00,,,0.00,325,WeatherTracker,2013-08-22 17:03:00,
2013-08-22 12:08:00,79.4,70.4,28.68,North,10,0.0,0.0,74,0.00,,,0.00,320,WeatherTracker,2013-08-22 17:08:00,
2013-08-22 12:13:00,79.7,71.1,28.68,North,10,0.0,0.0,75,0.00,,,0.00,374,WeatherTracker,2013-08-22 17:13:00,
2013-08-22 12:18:00,79.9,70.9,28.68,North,9,0.0,0.0,74,0.00,,,0.00,598,WeatherTracker,2013-08-22 17:18:00,
2013-08-22 12:23:00,80.2,70.7,28.68,NNE,14,0.0,0.0,73,0.00,,,0.00,434,WeatherTracker,2013-08-22 17:23:00,
2013-08-22 12:28:00,80.5,71.8,28.68,NNW,344,2.0,0.0,75,0.00,,,0.00,476,WeatherTracker,2013-08-22 17:28:00,
2013-08-22 12:33:00,80.9,71.4,28.67,NNE,19,0.0,0.0,73,0.00,,,0.00,446,WeatherTracker,2013-08-22 17:33:00,
2013-08-22 12:38:00,81.1,71.2,28.67,NNE,18,0.0,0.0,72,0.00,,,0.00,380,WeatherTracker,2013-08-22 17:38:00,
2013-08-22 12:43:00,81.3,71.4,28.67,NNE,19,0.0,0.0,72,0.00,,,0.00,357,WeatherTracker,2013-08-22 17:43:00,
2013-08-22 12:48:00,81.4,71.5,28.67,North,350,0.0,0.0,72,0.00,,,0.00,369,WeatherTracker,2013-08-22 17:48:00,
2013-08-22 12:53:00,81.6,71.7,28.67,North,350,0.0,0.0,72,0.00,,,0.00,870,WeatherTracker,2013-08-22 17:53:00,
2013-08-22 12:58:00,81.9,72.4,28.67,North,350,0.0,0.0,73,0.00,,,0.00,965,WeatherTracker,2013-08-22 17:58:00,
2013-08-22 13:03:00,82.6,72.2,28.66,WNW,298,1.0,0.0,71,0.00,,,0.00,939,WeatherTracker,2013-08-22 18:03:00,
2013-08-22 13:08:00,83.3,72.0,28.66,North,9,0.0,0.0,69,0.00,,,0.00,1023,WeatherTracker,2013-08-22 18:08:00,
2013-08-22 13:13:00,84.0,72.7,28.65,NW,307,2.0,0.0,69,0.00,,,0.00,1039,WeatherTracker,2013-08-22 18:13:00,
2013-08-22 13:18:00,84.6,71.5,28.65,North,355,0.0,0.0,65,0.00,,,0.00,1079,WeatherTracker,2013-08-22 18:18:00,
2013-08-22 13:24:00,85.1,72.4,28.65,East,90,0.0,0.0,66,0.00,,,0.00,1107,WeatherTracker,2013-08-22 18:24:00,
2013-08-22 13:29:00,85.7,72.5,28.65,WSW,248,2.0,0.0,65,0.00,,,0.00,582,WeatherTracker,2013-08-22 18:29:00,
2013-08-22 13:34:00,86.2,72.1,28.65,NNE,15,5.0,0.0,63,0.00,,,0.00,489,WeatherTracker,2013-08-22 18:34:00,
2013-08-22 13:39:00,86.4,72.3,28.65,WNW,293,1.0,0.0,63,0.00,,,0.00,561,WeatherTracker,2013-08-22 18:39:00,
2013-08-22 13:44:00,86.5,72.4,28.64,West,275,1.0,0.0,63,0.00,,,0.00,520,WeatherTracker,2013-08-22 18:44:00,
2013-08-22 13:49:00,86.5,71.9,28.64,South,173,0.0,0.0,62,0.00,,,0.00,497,WeatherTracker,2013-08-22 18:49:00,
2013-08-22 13:54:00,86.5,72.4,28.64,NE,47,1.0,0.0,63,0.00,,,0.00,399,WeatherTracker,2013-08-22 18:54:00,
2013-08-22 13:59:00,86.3,72.7,28.65,NE,45,0.0,0.0,64,0.00,,,0.00,376,WeatherTracker,2013-08-22 18:59:00,
2013-08-22 14:04:00,86.0,72.4,28.65,North,360,0.0,0.0,64,0.00,,,0.00,373,WeatherTracker,2013-08-22 19:04:00,
2013-08-22 14:09:00,85.6,72.0,28.65,North,355,0.0,0.0,64,0.00,,,0.00,403,WeatherTracker,2013-08-22 19:09:00,
2013-08-22 14:14:00,85.4,72.7,28.64,North,360,0.0,0.0,66,0.00,,,0.00,403,WeatherTracker,2013-08-22 19:14:00,
2013-08-22 14:19:00,85.4,72.3,28.64,WSW,248,0.0,0.0,65,0.00,,,0.00,346,WeatherTracker,2013-08-22 19:19:00,
2013-08-22 14:24:00,85.4,72.3,28.64,WSW,249,0.0,0.0,65,0.00,,,0.00,374,WeatherTracker,2013-08-22 19:24:00,
2013-08-22 14:29:00,85.4,72.3,28.64,NW,309,0.0,0.0,65,0.00,,,0.00,350,WeatherTracker,2013-08-22 19:29:00,
2013-08-22 14:34:00,85.4,72.3,28.64,NW,309,0.0,0.0,65,0.00,,,0.00,981,WeatherTracker,2013-08-22 19:34:00,
2013-08-22 14:39:00,85.4,72.7,28.64,NNW,330,0.0,0.0,66,0.00,,,0.00,345,WeatherTracker,2013-08-22 19:39:00,
2013-08-22 14:44:00,85.6,72.5,28.63,NNW,342,0.0,0.0,65,0.00,,,0.00,763,WeatherTracker,2013-08-22 19:44:00,
2013-08-22 14:49:00,85.9,72.7,28.63,West,280,0.0,0.0,65,0.00,,,0.00,858,WeatherTracker,2013-08-22 19:49:00,
2013-08-22 14:54:00,86.3,72.2,28.63,NW,309,0.0,0.0,63,0.00,,,0.00,942,WeatherTracker,2013-08-22 19:54:00,
2013-08-22 15:00:00,86.7,71.1,28.63,NW,326,0.0,0.0,60,0.00,,,0.00,383,WeatherTracker,2013-08-22 20:00:00,
2013-08-22 15:05:00,87.0,71.9,28.63,NNW,348,0.0,0.0,61,0.00,,,0.00,452,WeatherTracker,2013-08-22 20:05:00,
2013-08-22 15:10:00,87.1,72.9,28.63,NNE,13,0.0,0.0,63,0.00,,,0.00,420,WeatherTracker,2013-08-22 20:10:00,
2013-08-22 15:15:00,87.1,72.5,28.63,NNE,14,0.0,0.0,62,0.00,,,0.00,399,WeatherTracker,2013-08-22 20:15:00,
2013-08-22 15:20:00,87.3,72.7,28.63,NNE,14,0.0,0.0,62,0.00,,,0.00,928,WeatherTracker,2013-08-22 20:20:00,
2013-08-22 15:25:00,87.5,72.8,28.63,NNE,15,1.0,0.0,62,0.00,,,0.00,410,WeatherTracker,2013-08-22 20:25:00,
2013-08-22 15:30:00,87.5,72.4,28.63,NNE,14,0.0,0.0,61,0.00,,,0.00,715,WeatherTracker,2013-08-22 20:30:00,
2013-08-22 15:35:00,87.7,73.0,28.63,West,268,0.0,0.0,62,0.00,,,0.00,921,WeatherTracker,2013-08-22 20:35:00,
2013-08-22 15:40:00,87.7,73.0,28.63,SSE,160,0.0,0.0,62,0.00,,,0.00,819,WeatherTracker,2013-08-22 20:40:00,
2013-08-22 15:45:00,87.8,73.1,28.62,SSE,160,0.0,0.0,62,0.00,,,0.00,278,WeatherTracker,2013-08-22 20:45:00,
2013-08-22 15:50:00,87.8,72.6,28.62,NNE,21,0.0,0.0,61,0.00,,,0.00,487,WeatherTracker,2013-08-22 20:50:00,
2013-08-22 15:55:00,87.8,73.1,28.62,WNW,286,0.0,0.0,62,0.00,,,0.00,369,WeatherTracker,2013-08-22 20:55:00,
2013-08-22 16:00:00,87.7,73.0,28.61,WNW,287,0.0,0.0,62,0.00,,,0.00,380,WeatherTracker,2013-08-22 21:00:00,
2013-08-22 16:05:00,87.6,72.9,28.61,WNW,290,1.0,0.0,62,0.00,,,0.00,475,WeatherTracker,2013-08-22 21:05:00,
2013-08-22 16:10:00,87.6,72.5,28.61,WNW,290,0.0,0.0,61,0.00,,,0.00,826,WeatherTracker,2013-08-22 21:10:00,
2013-08-22 16:15:00,87.9,72.2,28.62,WNW,290,0.0,0.0,60,0.00,,,0.00,417,WeatherTracker,2013-08-22 21:15:00,
2013-08-22 16:20:00,88.2,73.5,28.62,NW,304,1.0,0.0,62,0.00,,,0.00,302,WeatherTracker,2013-08-22 21:20:00,
2013-08-22 16:25:00,88.2,72.5,28.62,NNE,22,1.0,0.0,60,0.00,,,0.00,274,WeatherTracker,2013-08-22 21:25:00,
2013-08-22 16:30:00,88.1,73.4,28.61,West,271,0.0,0.0,62,0.00,,,0.00,475,WeatherTracker,2013-08-22 21:30:00,
2013-08-22 16:35:00,88.1,72.9,28.61,North,355,0.0,0.0,61,0.00,,,0.00,529,WeatherTracker,2013-08-22 21:35:00,
2013-08-22 16:40:00,88.1,72.4,28.61,NNE,21,0.0,0.0,60,0.00,,,0.00,584,WeatherTracker,2013-08-22 21:40:00,
2013-08-22 16:45:00,88.1,72.4,28.61,West,276,1.0,0.0,60,0.00,,,0.00,552,WeatherTracker,2013-08-22 21:45:00,
2013-08-22 16:51:00,88.3,72.1,28.61,West,281,0.0,0.0,59,0.00,,,0.00,555,WeatherTracker,2013-08-22 21:51:00,
2013-08-22 16:56:00,88.5,71.8,28.61,West,279,0.0,0.0,58,0.00,,,0.00,531,WeatherTracker,2013-08-22 21:56:00,
2013-08-22 17:01:00,88.8,73.1,28.61,West,279,0.0,0.0,60,0.00,,,0.00,508,WeatherTracker,2013-08-22 22:01:00,
2013-08-22 17:06:00,89.0,72.8,28.61,West,279,0.0,0.0,59,0.00,,,0.00,497,WeatherTracker,2013-08-22 22:06:00,
2013-08-22 17:11:00,89.3,72.5,28.61,SSE,163,0.0,0.0,58,0.00,,,0.00,473,WeatherTracker,2013-08-22 22:11:00,
2013-08-22 17:16:00,89.6,73.3,28.60,SSE,163,0.0,0.0,59,0.00,,,0.00,471,WeatherTracker,2013-08-22 22:16:00,
2013-08-22 17:21:00,89.9,73.1,28.60,South,171,0.0,0.0,58,0.00,,,0.00,457,WeatherTracker,2013-08-22 22:21:00,
2013-08-22 17:26:00,90.2,73.4,28.60,South,171,0.0,0.0,58,0.00,,,0.00,436,WeatherTracker,2013-08-22 22:26:00,
2013-08-22 17:31:00,90.4,74.1,28.60,South,171,0.0,0.0,59,0.00,,,0.00,431,WeatherTracker,2013-08-22 22:31:00,
2013-08-22 17:36:00,90.5,72.6,28.60,South,171,0.0,0.0,56,0.00,,,0.00,415,WeatherTracker,2013-08-22 22:36:00,
2013-08-22 17:41:00,90.5,74.2,28.60,South,171,0.0,0.0,59,0.00,,,0.00,408,WeatherTracker,2013-08-22 22:41:00,
2013-08-22 17:46:00,90.5,73.1,28.60,South,172,0.0,0.0,57,0.00,,,0.00,392,WeatherTracker,2013-08-22 22:46:00,
2013-08-22 17:51:00,90.4,74.1,28.60,South,174,0.0,0.0,59,0.00,,,0.00,385,WeatherTracker,2013-08-22 22:51:00,
2013-08-22 17:56:00,90.3,73.5,28.60,WSW,256,0.0,0.0,58,0.00,,,0.00,369,WeatherTracker,2013-08-22 22:56:00,
2013-08-22 18:01:00,90.3,73.5,28.60,WSW,257,0.0,0.0,58,0.00,,,0.00,353,WeatherTracker,2013-08-22 23:01:00,
2013-08-22 18:06:00,90.2,74.4,28.60,WSW,257,0.0,0.0,60,0.00,,,0.00,186,WeatherTracker,2013-08-22 23:06:00,
2013-08-22 18:11:00,90.2,73.9,28.60,WSW,258,0.0,0.0,59,0.00,,,0.00,320,WeatherTracker,2013-08-22 23:11:00,
2013-08-22 18:16:00,89.9,73.6,28.60,NW,325,0.0,0.0,59,0.00,,,0.00,316,WeatherTracker,2013-08-22 23:16:00,
2013-08-22 18:21:00,89.7,74.4,28.60,North,9,0.0,0.0,61,0.00,,,0.00,301,WeatherTracker,2013-08-22 23:21:00,
2013-08-22 18:26:00,89.5,74.2,28.60,North,9,0.0,0.0,61,0.00,,,0.00,297,WeatherTracker,2013-08-22 23:26:00,
2013-08-22 18:31:00,89.3,74.0,28.60,North,9,0.0,0.0,61,0.00,,,0.00,264,WeatherTracker,2013-08-22 23:31:00,
2013-08-22 18:36:00,89.1,73.9,28.60,North,349,0.0,0.0,61,0.00,,,0.00,232,WeatherTracker,2013-08-22 23:36:00,
2013-08-22 18:41:00,88.9,73.7,28.60,NNW,348,0.0,0.0,61,0.00,,,0.00,169,WeatherTracker,2013-08-22 23:41:00,
2013-08-22 18:46:00,88.7,73.5,28.60,North,360,0.0,0.0,61,0.00,,,0.00,169,WeatherTracker,2013-08-22 23:46:00,
2013-08-22 18:52:00,88.2,73.5,28.60,North,360,0.0,0.0,62,0.00,,,0.00,148,WeatherTracker,2013-08-22 23:52:00,
2013-08-22 18:57:00,87.8,73.1,28.60,North,360,0.0,0.0,62,0.00,,,0.00,144,WeatherTracker,2013-08-22 23:57:00,
2013-08-22 19:02:00,87.5,73.8,28.60,North,360,0.0,0.0,64,0.00,,,0.00,167,WeatherTracker,2013-08-23 00:02:00,
2013-08-22 19:07:00,87.1,73.4,28.60,North,360,0.0,0.0,64,0.00,,,0.00,97,WeatherTracker,2013-08-23 00:07:00,
2013-08-22 19:12:00,86.8,73.1,28.60,North,360,0.0,0.0,64,0.00,,,0.00,109,WeatherTracker,2013-08-23 00:12:00,
2013-08-22 19:17:00,86.4,73.2,28.60,North,360,0.0,0.0,65,0.00,,,0.00,62,WeatherTracker,2013-08-23 00:17:00,
2013-08-22 19:22:00,86.0,73.3,28.60,North,360,0.0,0.0,66,0.00,,,0.00,53,WeatherTracker,2013-08-23 00:22:00,
2013-08-22 19:27:00,85.6,73.4,28.60,North,360,0.0,0.0,67,0.00,,,0.00,42,WeatherTracker,2013-08-23 00:27:00,
2013-08-22 19:32:00,85.2,73.0,28.60,North,360,0.0,0.0,67,0.00,,,0.00,42,WeatherTracker,2013-08-23 00:32:00,
2013-08-22 19:37:00,84.8,73.0,28.60,North,360,0.0,0.0,68,0.00,,,0.00,28,WeatherTracker,2013-08-23 00:37:00,
2013-08-22 19:42:00,84.3,72.6,28.60,North,360,0.0,0.0,68,0.00,,,0.00,25,WeatherTracker,2013-08-23 00:42:00,
2013-08-22 19:47:00,83.7,72.4,28.61,North,360,0.0,0.0,69,0.00,,,0.00,26,WeatherTracker,2013-08-23 00:47:00,
2013-08-22 19:52:00,83.2,71.9,28.61,North,360,0.0,0.0,69,0.00,,,0.00,25,WeatherTracker,2013-08-23 00:52:00,
2013-08-22 19:57:00,82.6,71.8,28.61,North,360,0.0,0.0,70,0.00,,,0.00,19,WeatherTracker,2013-08-23 00:57:00,
2013-08-22 20:02:00,82.1,71.7,28.61,North,360,0.0,0.0,71,0.00,,,0.00,12,WeatherTracker,2013-08-23 01:02:00,
2013-08-22 20:07:00,81.6,71.7,28.61,North,360,0.0,0.0,72,0.00,,,0.00,9,WeatherTracker,2013-08-23 01:07:00,
2013-08-22 20:12:00,81.1,71.2,28.61,North,360,0.0,0.0,72,0.00,,,0.00,0,WeatherTracker,2013-08-23 01:12:00,
2013-08-22 20:17:00,80.6,71.1,28.61,North,360,0.0,0.0,73,0.00,,,0.00,0,WeatherTracker,2013-08-23 01:17:00,
2013-08-22 20:22:00,80.1,71.0,28.61,North,360,0.0,0.0,74,0.00,,,0.00,0,WeatherTracker,2013-08-23 01:22:00,
2013-08-22 20:28:00,79.5,70.9,28.61,North,360,0.0,0.0,75,0.00,,,0.00,0,WeatherTracker,2013-08-23 01:28:00,
2013-08-22 20:33:00,78.9,70.7,28.62,North,360,0.0,0.0,76,0.00,,,0.00,0,WeatherTracker,2013-08-23 01:33:00,
2013-08-22 20:38:00,78.5,70.7,28.62,North,360,0.0,0.0,77,0.00,,,0.00,0,WeatherTracker,2013-08-23 01:38:00,
2013-08-22 20:43:00,78.0,70.2,28.62,North,360,0.0,0.0,77,0.00,,,0.00,0,WeatherTracker,2013-08-23 01:43:00,
2013-08-22 20:48:00,77.5,70.1,28.62,North,360,0.0,0.0,78,0.00,,,0.00,0,WeatherTracker,2013-08-23 01:48:00,
2013-08-22 20:53:00,77.1,69.7,28.62,North,360,0.0,0.0,78,0.00,,,0.00,0,WeatherTracker,2013-08-23 01:53:00,
2013-08-22 20:58:00,76.7,69.7,28.62,North,360,0.0,0.0,79,0.00,,,0.00,0,WeatherTracker,2013-08-23 01:58:00,
2013-08-22 21:03:00,76.4,69.4,28.63,North,360,0.0,0.0,79,0.00,,,0.00,0,WeatherTracker,2013-08-23 02:03:00,
2013-08-22 21:08:00,76.0,69.4,28.63,North,360,0.0,0.0,80,0.00,,,0.00,0,WeatherTracker,2013-08-23 02:08:00,
2013-08-22 21:13:00,75.7,69.4,28.63,North,360,0.0,0.0,81,0.00,,,0.00,0,WeatherTracker,2013-08-23 02:13:00,
2013-08-22 21:18:00,75.4,69.2,28.63,North,360,0.0,0.0,81,0.00,,,0.00,0,WeatherTracker,2013-08-23 02:18:00,
2013-08-22 21:23:00,75.1,69.2,28.63,North,360,0.0,0.0,82,0.00,,,0.00,0,WeatherTracker,2013-08-23 02:23:00,
2013-08-22 21:28:00,74.8,68.9,28.63,North,360,0.0,0.0,82,0.00,,,0.00,0,WeatherTracker,2013-08-23 02:28:00,
2013-08-22 21:33:00,74.5,68.6,28.63,North,360,0.0,0.0,82,0.00,,,0.00,0,WeatherTracker,2013-08-23 02:33:00,
2013-08-22 21:38:00,74.2,68.7,28.63,North,360,0.0,0.0,83,0.00,,,0.00,0,WeatherTracker,2013-08-23 02:38:00,
2013-08-22 21:43:00,73.9,68.4,28.63,North,360,0.0,0.0,83,0.00,,,0.00,0,WeatherTracker,2013-08-23 02:43:00,
2013-08-22 21:48:00,73.7,68.6,28.64,North,360,0.0,0.0,84,0.00,,,0.00,0,WeatherTracker,2013-08-23 02:48:00,
2013-08-22 21:54:00,73.6,68.8,28.64,North,360,0.0,0.0,85,0.00,,,0.00,0,WeatherTracker,2013-08-23 02:54:00,
2013-08-22 21:59:00,73.4,68.9,28.65,North,360,0.0,0.0,86,0.00,,,0.00,0,WeatherTracker,2013-08-23 02:59:00,
2013-08-22 22:04:00,73.2,68.8,28.65,North,360,0.0,0.0,86,0.00,,,0.00,0,WeatherTracker,2013-08-23 03:04:00,
2013-08-22 22:09:00,73.0,68.6,28.65,North,360,0.0,0.0,86,0.00,,,0.00,0,WeatherTracker,2013-08-23 03:09:00,
2013-08-22 22:14:00,72.7,68.3,28.65,North,360,0.0,0.0,86,0.00,,,0.00,0,WeatherTracker,2013-08-23 03:14:00,
2013-08-22 22:19:00,72.5,68.1,28.65,North,360,0.0,0.0,86,0.00,,,0.00,0,WeatherTracker,2013-08-23 03:19:00,
2013-08-22 22:24:00,72.2,67.8,28.65,North,360,0.0,0.0,86,0.00,,,0.00,0,WeatherTracker,2013-08-23 03:24:00,
2013-08-22 22:29:00,72.0,67.6,28.65,North,360,0.0,0.0,86,0.00,,,0.00,0,WeatherTracker,2013-08-23 03:29:00,
2013-08-22 22:34:00,71.8,67.7,28.65,North,360,0.0,0.0,87,0.00,,,0.00,0,WeatherTracker,2013-08-23 03:34:00,
2013-08-22 22:39:00,71.6,67.5,28.65,North,360,0.0,0.0,87,0.00,,,0.00,0,WeatherTracker,2013-08-23 03:39:00,
2013-08-22 22:44:00,71.3,67.2,28.65,North,360,0.0,0.0,87,0.00,,,0.00,0,WeatherTracker,2013-08-23 03:44:00,
2013-08-22 22:49:00,71.2,67.1,28.65,North,360,0.0,0.0,87,0.00,,,0.00,0,WeatherTracker,2013-08-23 03:49:00,
2013-08-22 22:54:00,70.9,66.8,28.65,North,360,0.0,0.0,87,0.00,,,0.00,0,WeatherTracker,2013-08-23 03:54:00,
2013-08-22 22:59:00,70.6,66.5,28.66,North,360,0.0,0.0,87,0.00,,,0.00,0,WeatherTracker,2013-08-23 03:59:00,
2013-08-22 23:01:00,70.6,66.5,28.66,North,360,0.0,0.0,87,0.00,,,0.00,0,WeatherTracker,2013-08-23 04:01:00,
2013-08-22 23:06:00,70.4,66.7,28.66,North,360,0.0,0.0,88,0.00,,,0.00,0,WeatherTracker,2013-08-23 04:06:00,
2013-08-22 23:11:00,70.3,66.6,28.66,North,360,0.0,0.0,88,0.00,,,0.00,0,WeatherTracker,2013-08-23 04:11:00,
2013-08-22 23:16:00,70.1,66.4,28.66,North,360,0.0,0.0,88,0.00,,,0.00,0,WeatherTracker,2013-08-23 04:16:00,
2013-08-22 23:21:00,69.9,66.2,28.66,North,360,0.0,0.0,88,0.00,,,0.00,0,WeatherTracker,2013-08-23 04:21:00,
2013-08-22 23:26:00,69.8,66.4,28.66,North,360,0.0,0.0,89,0.00,,,0.00,0,WeatherTracker,2013-08-23 04:26:00,
2013-08-22 23:32:00,69.9,66.8,28.66,North,360,0.0,0.0,90,0.00,,,0.00,0,WeatherTracker,2013-08-23 04:32:00,
2013-08-22 23:37:00,69.8,66.7,28.66,North,360,0.0,0.0,90,0.00,,,0.00,0,WeatherTracker,2013-08-23 04:37:00,
2013-08-22 23:42:00,69.8,67.0,28.66,North,360,0.0,0.0,91,0.00,,,0.00,0,WeatherTracker,2013-08-23 04:42:00,
2013-08-22 23:47:00,69.7,66.9,28.66,North,360,0.0,0.0,91,0.00,,,0.00,0,WeatherTracker,2013-08-23 04:47:00,
2013-08-22 23:52:00,69.6,66.9,28.66,North,360,0.0,0.0,91,0.00,,,0.00,0,WeatherTracker,2013-08-23 04:52:00,
2013-08-22 23:57:00,69.4,66.7,28.66,North,360,0.0,0.0,91,0.00,,,0.00,0,WeatherTracker,2013-08-23 04:57:00,